Regional Weather Roundup
Issued by NWS

Home | Current Version | Previous Version | Graphics & Text | Print | Product List | Glossary On
Versions: 1 2 3 4 5 6 7 8 9 10 11 12 13 14 15 16 17 18 19 20 21 22 23 24 25 26 27 28 29 30 31 32 33 34 35 36 37 38 39 40 41 42 43 44 45 46 47 48 49 50
000
ASUS43 KBIS 101610
RWRND
NORTH DAKOTA REGIONAL WEATHER ROUNDUP
NATIONAL WEATHER SERVICE EASTERN NORTH DAKOTA/GRAND FORKS ND
1000 AM CST WED FEB 10 2016

  NOTE: "FAIR" INDICATES FEW OR NO CLOUDS BELOW 12,000 FEET WITH NO
  SIGNIFICANT WEATHER AND/OR OBSTRUCTIONS TO VISIBILITY.

NDZ001>003-009>011-017-101700-
...NORTHWEST NORTH DAKOTA...

CITY           SKY/WX    TMP DP  RH WIND       PRES   REMARKS
WILLISTON      CLOUDY    30  26  85 N10       29.97R WCI  21
MINOT          CLOUDY    17   8  67 E10       29.94R WCI   5
MINOT AFB      CLOUDY    14  10  85 E7        29.97R WCI   4
$$

NDZ018>021-031>035-040>046-101700-
...SOUTHWEST NORTH DAKOTA...

CITY           SKY/WX    TMP DP  RH WIND       PRES   REMARKS
BISMARCK       CLOUDY    23  16  74 E12       29.91R WCI  12
DICKINSON      SUNNY     37  28  70 NW20      29.86R WCI  27
GARRISON         N/A     19  14  81 E13       29.90R WCI   6
HETTINGER      SUNNY     42  29  59 NW20G25   29.86S
$$

NDZ004>008-012>016-024-026-027-054-101700-
...NORTHEAST NORTH DAKOTA...

CITY           SKY/WX    TMP DP  RH WIND       PRES   REMARKS
GRAND FORKS    CLOUDY     7  -1  70 E9        30.13R WCI  -7
GRAND FORKS AF CLOUDY     6  -1  74 E9        30.12R WCI  -8
DEVILS LAKE    FLURRIES   5   0  79 SE13      30.03  WCI -12
$$

NDZ022-023-025-028>030-036>039-047>053-101700-
...SOUTHEAST NORTH DAKOTA...

CITY           SKY/WX    TMP DP  RH WIND       PRES   REMARKS
JAMESTOWN      CLOUDY     7   3  84 SE14      29.99R WCI -10
FARGO          LGT SNOW   8   2  76 E8        30.10R WCI  -4
WAHPETON       CLOUDY     9   3  78 SE9       30.09S WCI  -5
$$



USA.gov is the U.S. government's official web portal to all federal, state and local government web resources and services.